Location: Grossmotten
(48.5500°N, 15.3833°E)
Time: 17:34:48
(UTC+00:00)

Cosmos 1680 Rocket - Pass Details

Date: 15 November 2019
Orbit: 759 x 782 km, 74.1° (Epoch: 10 December)

Event Time Altitude Azimuth Distance (km) Brightness Sun altitude
Exits shadow 04:08:35 37° 279° (W) 1,191 3.9 -19.3°
Maximum altitude 04:09:23 40° 257° (WSW) 1,143 3.9 -19.2°
Drops below altitude 10° 04:14:17 10° 189° (S) 2,328 6.0 -18.4°
Sets 04:16:47 0° 182° (S) 3,253 6.8 -17.9°
